DW8013 Loker BE current weather conditions

sailwx.info

Wind from 235

Air temperature 5.6° C
Dewpoint 3.9° C

Last reported at 2018-Nov-14 04:00 UTC.
Time now 2018-Nov-14 04:23 UTC

Location: N 50°47' E 002°46'.
View on Google Maps.

See reports from other nearby stations

  
Tides and Currents Weather Stations Pressure Air Temp Water Temp Dewpoint Dewpoint Depression Visibility Wind Speed Wind Dir Waves Ship Positions
date/time (UTC)wind fromknots sea level pressurealtimeterstation pressurevisibilityair tempwater tempwave heightnotes
2018-Nov-14 04:00 235 5.6
2018-Nov-14 03:45 235 5.6
2018-Nov-14 03:30 235 5.6
2018-Nov-14 03:15 235 5.6
2018-Nov-14 03:00 235 5.6
2018-Nov-14 02:45 235 6.1
2018-Nov-14 02:30 235 6.1
2018-Nov-14 02:17 235 6.1
2018-Nov-14 02:01 235 6.1
2018-Nov-14 01:46 235 6.1
2018-Nov-14 01:32 235 6.1
2018-Nov-14 01:17 235 6.7
2018-Nov-14 01:02 235 6.7
2018-Nov-14 00:46 235 6.7
2018-Nov-14 00:31 235 6.7
2018-Nov-14 00:16 235 6.7
2018-Nov-14 00:01 235 6.7
2018-Nov-13 23:46 236 6.7
2018-Nov-13 23:31 236 6.7
2018-Nov-13 23:16 236 6.7
2018-Nov-13 23:02 236 6.7
2018-Nov-13 22:46 236 6.7
2018-Nov-13 22:31 236 6.7
2018-Nov-13 22:16 236 7.2
2018-Nov-13 22:00 236 7.2
2018-Nov-13 21:45 236 7.2
2018-Nov-13 21:30 236 7.2
2018-Nov-13 21:15 236 7.8
2018-Nov-13 21:00 236 7.8
2018-Nov-13 20:45 236 7.8
2018-Nov-13 20:30 236 8.3
2018-Nov-13 20:15 236 8.3
2018-Nov-13 20:00 236 8.9
2018-Nov-13 19:46 236 8.9
2018-Nov-13 19:31 236 9.4
2018-Nov-13 19:15 236 9.4
2018-Nov-13 19:01 236 10.0
2018-Nov-13 18:45 253 10.0
2018-Nov-13 18:30 250 10.0
2018-Nov-13 18:15 252 10.6
2018-Nov-13 18:00 240 10.6
2018-Nov-13 17:45 240 10.6
2018-Nov-13 17:30 272 10.6
2018-Nov-13 17:15 236 10.6
2018-Nov-13 17:00 248 10.6
2018-Nov-13 16:45 256 10.6
2018-Nov-13 16:30 238 10.6
2018-Nov-13 16:15 236 10.6
2018-Nov-13 16:00 236 11.1
2018-Nov-13 15:45 233 11.1
2018-Nov-13 15:30 238 11.1
2018-Nov-13 15:15 241 11.7
2018-Nov-13 15:00 246 11.7
2018-Nov-13 14:45 243 11.7
2018-Nov-13 14:30 293 12.8
2018-Nov-13 14:15 259 12.8
2018-Nov-13 14:00 248 12.8
2018-Nov-13 13:47 221 13.3
2018-Nov-13 13:31 211 13.3
2018-Nov-13 13:16 243 13.3
2018-Nov-13 13:01 183 12.8
2018-Nov-13 12:46 194 12.8
2018-Nov-13 12:30 227 12.8
2018-Nov-13 12:16 221 12.2
2018-Nov-13 12:01 236 12.2
2018-Nov-13 11:46 236 11.7
2018-Nov-13 11:31 225 11.1
2018-Nov-13 11:16 223 11.1
2018-Nov-13 11:01 228 11.7
2018-Nov-13 10:45 275 11.7
2018-Nov-13 10:31 196 11.7
2018-Nov-13 10:16 251 11.1
2018-Nov-13 10:01 266 10.6
2018-Nov-13 09:46 242 10.0
2018-Nov-13 09:31 200 9.4
2018-Nov-13 09:15 210 8.9
2018-Nov-13 09:00 266 8.9
2018-Nov-13 08:45 239 8.9
2018-Nov-13 08:30 246 8.9
2018-Nov-13 08:15 213 8.9
2018-Nov-13 08:00 246 8.9
2018-Nov-13 07:45 254 8.9
2018-Nov-13 07:30 238 8.9
2018-Nov-13 07:15 277 8.9
2018-Nov-13 07:01 232 8.3
2018-Nov-13 06:46 242 8.3
2018-Nov-13 06:31 251 8.3
2018-Nov-13 06:17 227 8.3
2018-Nov-13 06:01 267 8.9
2018-Nov-13 05:47 237 8.9
2018-Nov-13 05:31 277 8.9
2018-Nov-13 05:16 194 8.9
2018-Nov-13 05:00 269 8.3
2018-Nov-13 04:46 241 8.3
2018-Nov-13 04:31 257 8.3
2018-Nov-13 04:15 232 8.3
2018-Nov-13 04:01 246 8.3
2018-Nov-13 03:46 215 8.3
2018-Nov-13 03:30 210 8.3
2018-Nov-13 03:16 209 8.3
2018-Nov-13 03:01 209 8.3
2018-Nov-13 02:46 209 8.3
2018-Nov-13 02:30 209 8.3
2018-Nov-13 02:16 186 8.3
2018-Nov-13 02:01 181 8.3
2018-Nov-13 01:45 219 8.3
2018-Nov-13 01:31 208 8.3
2018-Nov-13 01:15 171 8.3
2018-Nov-13 01:00 197 8.3
2018-Nov-13 00:46 170 8.3
2018-Nov-13 00:30 192 8.3
2018-Nov-13 00:15 178 8.3
2018-Nov-13 00:00 188 8.3
2018-Nov-12 23:46 188 8.3
2018-Nov-12 23:30 194 8.3
2018-Nov-12 23:15 194 8.3
2018-Nov-12 23:00 208 8.3
2018-Nov-12 22:45 205 8.3
2018-Nov-12 22:30 205 8.3
2018-Nov-12 22:15 205 8.3
2018-Nov-12 22:00 205 8.3
2018-Nov-12 21:45 205 8.3
2018-Nov-12 21:30 205 8.3
2018-Nov-12 21:15 205 8.3
2018-Nov-12 21:00 205 8.3
2018-Nov-12 20:45 205 8.9
2018-Nov-12 20:30 205 8.9
2018-Nov-12 20:15 205 8.9
2018-Nov-12 20:01 205 8.9
2018-Nov-12 19:46 205 8.9
2018-Nov-12 19:33 205 8.9
2018-Nov-12 19:16 205 8.9
2018-Nov-12 19:02 205 8.9
2018-Nov-12 18:46 205 9.4
2018-Nov-12 18:31 206 9.4
2018-Nov-12 18:16 206 9.4
2018-Nov-12 18:01 206 9.4
2018-Nov-12 17:46 206 10.0
2018-Nov-12 17:31 207 10.0
2018-Nov-12 17:16 190 10.0
2018-Nov-12 17:01 190 10.0
2018-Nov-12 16:46 190 10.0
2018-Nov-12 16:31 190 10.6
2018-Nov-12 16:16 190 10.6
2018-Nov-12 16:01 199 11.1
2018-Nov-12 15:46 188 11.1
2018-Nov-12 15:30 188 11.1
2018-Nov-12 15:16 187 11.7
2018-Nov-12 15:01 196 12.2
2018-Nov-12 14:46 226 12.2
2018-Nov-12 14:30 226 12.8
2018-Nov-12 14:15 252 12.8
2018-Nov-12 14:00 234 12.8
2018-Nov-12 13:46 238 13.3
2018-Nov-12 13:30 246 12.8
2018-Nov-12 13:15 242 12.2
2018-Nov-12 13:00 202 11.7
2018-Nov-12 12:45 234 11.1
2018-Nov-12 12:30 246 11.1
2018-Nov-12 12:15 238 11.1
2018-Nov-12 12:00 238 10.6
2018-Nov-12 11:45 238 10.6
2018-Nov-12 11:30 169 10.6
2018-Nov-12 11:15 169 10.6
2018-Nov-12 11:00 225 10.0
2018-Nov-12 10:45 225 10.0
2018-Nov-12 10:30 223 10.0
2018-Nov-12 10:15 229 10.0
2018-Nov-12 10:00 229 10.0
2018-Nov-12 09:46 248 10.0
2018-Nov-12 09:31 248 9.4
2018-Nov-12 09:16 262 9.4
2018-Nov-12 09:01 242 10.0
2018-Nov-12 08:47 242 10.0
2018-Nov-12 08:31 242 10.0
2018-Nov-12 08:16 242 10.0
2018-Nov-12 08:01 242 9.4
2018-Nov-12 07:46 242 9.4
2018-Nov-12 07:32 242 9.4
2018-Nov-12 07:16 202 9.4
2018-Nov-12 07:01 202 9.4
2018-Nov-12 06:46 202 10.0
2018-Nov-12 06:31 202 9.4
2018-Nov-12 06:15 202 9.4
2018-Nov-12 06:02 202 9.4
2018-Nov-12 05:45 202 9.4
2018-Nov-12 05:31 202 10.0
2018-Nov-12 05:15 202 10.0
2018-Nov-12 05:00 202 10.0
2018-Nov-12 04:46 202 10.0
2018-Nov-12 04:31 202 10.0
2018-Nov-12 04:15 202 10.0
2018-Nov-12 04:00 202 10.0